Weather History for KNTD - September, 2012

Change the Weather History Date:

Monday, September 24, 2012

  Actual Average Record
Temperature  
Mean Temperature 64 °F -  
Max Temperature 72 °F 70 °F 82 °F (2013)
Min Temperature 57 °F 56 °F 50 °F (2004)
Growing Degree Days 14 (Base 50)    
Moisture  
Dew Point 61 °F    
Average Humidity 93    
Maximum Humidity 100    
Minimum Humidity 68    
Precipitation  
Precipitation 0.00 in - - ()
Sea Level Pressure  
Sea Level Pressure 29.94 in    
Wind  
Wind Speed 4 mph (NW)    
Max Wind Speed 15 mph    
Max Gust Speed -    
Visibility 5 miles    
Events Fog    
Averages and records for this station are not official NWS values.
T = Trace of Precipitation, MM = Missing Value Source: NWS Daily Summary

Daily Weather History Graph

Daily Weather History Graph

Search for Another Location

Airport or City:

Trip Planner

Search our weather history database for the weather conditions in past years. The results will help you decide how hot, cold, wet, or windy it might be!

Date:

Astronomy

Sep. 24, 2012 Rise Set
Actual Time 6:46 AM PDT 6:49 PM PDT
Civil Twilight 6:21 AM PDT 7:14 PM PDT
Nautical Twilight 5:52 AM PDT 7:43 PM PDT
Astronomical Twilight 5:22 AM PDT 8:12 PM PDT
Moon 3:27 PM PDT (9/24) 1:21 AM PDT (9/24)
Length of Visible Light 12h 53m
Length of Day
12h 03m
Waxing Gibbous, 71% of the Moon is Illuminated
Sep 24
Waxing Gibbous
Sep 29
Full
Oct 8
Last Quarter
Oct 15
New
Oct 21
First Quarter

Hourly Weather History & Observations

Time (PDT) Temp. Dew Point Humidity Pressure Visibility Wind Dir Wind Speed Gust Speed Precip Events Conditions
12:54 AM 62.1 °F 62.1 °F 100% 29.92 in 5.0 mi NNW 4.6 mph - N/A   Clear
1:54 AM 62.1 °F 62.1 °F 100% 29.92 in 6.0 mi NW 5.8 mph - N/A   Clear
2:54 AM 62.1 °F 62.1 °F 100% 29.91 in 6.0 mi NW 4.6 mph - N/A   Clear
3:54 AM 61.0 °F 61.0 °F 100% 29.92 in 4.0 mi Calm Calm - N/A   Clear
4:54 AM 60.1 °F 60.1 °F 100% 29.93 in 3.0 mi WNW 3.5 mph - N/A   Clear
5:54 AM 57.9 °F 57.9 °F 100% 29.94 in 6.0 mi East 3.5 mph - N/A   Clear
6:54 AM 57.0 °F 57.0 °F 100% 29.96 in 6.0 mi Calm Calm - N/A   Clear
7:07 AM 57.2 °F 57.2 °F 100% 29.96 in 5.0 mi Calm Calm - N/A   Scattered Clouds
7:28 AM 60.8 °F 60.8 °F 100% 29.96 in 5.0 mi Calm Calm - N/A   Mostly Cloudy
7:38 AM 62.6 °F 62.6 °F 100% 29.96 in 5.0 mi Calm Calm - N/A   Mostly Cloudy
7:45 AM 62.6 °F 62.6 °F 100% 29.96 in 5.0 mi Calm Calm - N/A   Mostly Cloudy
7:48 AM 62.6 °F 62.6 °F 100% 29.96 in 0.2 mi NNW 3.5 mph - N/A Fog Fog
7:54 AM 62.1 °F 62.1 °F 100% 29.97 in 0.2 mi NNW 3.5 mph - N/A Fog Fog
8:06 AM 62.6 °F 62.6 °F 100% 29.97 in 0.5 mi Calm Calm - N/A Fog Fog
8:13 AM 62.6 °F 62.6 °F 100% 29.97 in 1.0 mi NNW 3.5 mph - N/A   Mostly Cloudy
8:31 AM 62.6 °F 62.6 °F 100% 29.97 in 3.0 mi North 3.5 mph - N/A   Mostly Cloudy
8:45 AM 64.4 °F 64.4 °F 100% 29.98 in 3.0 mi Calm Calm - N/A   Partly Cloudy
8:54 AM 66.0 °F 64.9 °F 96% 29.98 in 3.0 mi North 3.5 mph - N/A   Partly Cloudy
9:54 AM 69.1 °F 62.1 °F 78% 29.99 in 8.0 mi Calm Calm - N/A   Partly Cloudy
10:54 AM 72.0 °F 61.0 °F 68% 29.98 in 5.0 mi West 9.2 mph - N/A   Haze
11:54 AM 70.0 °F 62.1 °F 76% 29.98 in 7.0 mi West 10.4 mph - N/A   Partly Cloudy
12:54 PM 70.0 °F 62.1 °F 76% 29.97 in 7.0 mi West 15.0 mph - N/A   Clear
1:54 PM 70.0 °F 60.1 °F 71% 29.95 in 7.0 mi West 13.8 mph - N/A   Clear
2:54 PM 70.0 °F 61.0 °F 73% 29.94 in 7.0 mi West 12.7 mph - N/A   Clear
3:54 PM 69.1 °F 60.1 °F 73% 29.92 in 7.0 mi West 10.4 mph - N/A   Clear
4:54 PM 68.0 °F 60.1 °F 76% 29.91 in 7.0 mi West 8.1 mph - N/A   Clear
5:54 PM 64.9 °F 61.0 °F 87% 29.91 in 7.0 mi West 10.4 mph - N/A   Clear
6:54 PM 62.1 °F 60.1 °F 93% 29.91 in 7.0 mi WNW 6.9 mph - N/A   Clear
7:23 PM 60.8 °F 60.8 °F 100% 29.90 in 7.0 mi WNW 5.8 mph - N/A   Partly Cloudy
7:54 PM 60.1 °F 60.1 °F 100% 29.91 in 7.0 mi NW 3.5 mph - N/A   Partly Cloudy
8:29 PM 60.8 °F 60.8 °F 100% 29.91 in 7.0 mi NW 6.9 mph - N/A   Mostly Cloudy
8:54 PM 61.0 °F 61.0 °F 100% 29.92 in 7.0 mi NNW 4.6 mph - N/A   Overcast
9:54 PM 61.0 °F 60.1 °F 97% 29.93 in 6.0 mi NW 3.5 mph - N/A   Mostly Cloudy
10:54 PM 60.1 °F 59.0 °F 96% 29.93 in 7.0 mi North 3.5 mph - N/A   Mostly Cloudy
11:30 PM 60.8 °F 60.8 °F 100% 29.93 in 7.0 mi NNW 4.6 mph - N/A   Overcast
11:54 PM 60.1 °F 59.0 °F 96% 29.93 in 7.0 mi NW 6.9 mph - N/A   Overcast